Carnival Splendor — 3EUS — position and weather

sailwx.info

Track history (hours):
 
Tides and Currents Weather Stations Pressure Air Temp Water Temp Dewpoint Dewpoint Depression Visibility Wind Speed Wind Dir Waves Ship Positions

Carnival Splendor

Last reported at 2015-May-22 00:13 UTC. Time now 2015-May-23 05:41 UTC.
Position N 27°52' W 079°31'.

Length 289 m; draft 8.3 m.

Type: Ship. MMSI: 372808000.

Date/timePositionNaut miles runAvg speedWind from/ knotsBaromVisibWave heightAir tempDewpointWater temp
2015-May-22 00:13N 27°52' W 079°31'1722.4
2015-May-21 23:28N 27°36' W 079°29'2222.4
2015-May-21 22:30N 27°14' W 079°26'63 5.3
2015-May-21 10:31N 26°24' W 078°42'5617.0
2015-May-21 07:12N 26°00' W 077°46'61512.1
2015-May-19 04:31N 35°52' W 074°31'  
2015-May-14 21:26N 26°45' W 079°23'55 4.5
2015-May-14 09:26N 26°19' W 078°29'1414.8
2015-May-14 08:29N 26°13' W 078°15'1817.0
2015-May-14 07:27N 26°05' W 077°57'1415.4
2015-May-14 06:32N 25°58' W 077°44'  
Track history (hours):
 
Tides and Currents Weather Stations Pressure Air Temp Water Temp Dewpoint Dewpoint Depression Visibility Wind Speed Wind Dir Waves Ship Positions

Carnival Splendor

Last reported at 2015-May-22 00:13 UTC. Time now 2015-May-23 05:41 UTC.
Position N 27°52' W 079°31'.

Length 289 m; draft 8.3 m.

Type: Ship. MMSI: 372808000.

Date/timePositionNaut miles runAvg speedWind from/ knotsBaromVisibWave heightAir tempDewpointWater temp
2015-May-22 00:13N 27°52' W 079°31'1722.4
2015-May-21 23:28N 27°36' W 079°29'2222.4
2015-May-21 22:30N 27°14' W 079°26'63 5.3
2015-May-21 10:31N 26°24' W 078°42'5617.0
2015-May-21 07:12N 26°00' W 077°46'61512.1
2015-May-19 04:31N 35°52' W 074°31'  
2015-May-14 21:26N 26°45' W 079°23'55 4.5
2015-May-14 09:26N 26°19' W 078°29'1414.8
2015-May-14 08:29N 26°13' W 078°15'1817.0
2015-May-14 07:27N 26°05' W 077°57'1415.4
2015-May-14 06:32N 25°58' W 077°44'  

Dump ship's entire track history